Location: Newark
(41.8083°N, 72.2500°W)
Time: 02:02:53
(UTC+00:00)

Vanguard 2 Rocket - Visible Passes

Search period start: 28 November 2021 00:00
Search period end: 08 December 2021 00:00
Orbit: 555 x 3324 km, 32.9° (Epoch: 27 November)

Date Brightness Start Highest point End Pass type
(mag) Time Alt. Az. Time Alt. Az. Time Alt. Az.
28 Nov 8.7 00:20:48 10° SW 00:28:43 44° SSE 00:28:43 44° SSE visible
28 Nov 9.9 02:32:30 10° WSW 02:34:30 19° WSW 02:34:30 19° WSW visible
28 Nov 10.6 07:25:28 19° S 07:25:28 19° S 07:31:12 10° SSE visible
28 Nov 8.7 23:22:22 10° SSW 23:28:55 33° SSE 23:32:13 28° ESE visible
29 Nov 9.1 01:33:12 10° WSW 01:38:00 37° SW 01:38:00 37° SW visible
29 Nov 10.8 06:29:03 15° SSE 06:29:03 15° SSE 06:31:25 10° SSE visible
29 Nov 10.8 08:34:49 11° SSW 08:34:49 11° SSW 08:36:52 10° SSW visible
29 Nov 9.0 22:24:33 10° S 22:29:31 22° SE 22:35:43 12° E visible
30 Nov 8.5 00:34:11 10° WSW 00:41:30 49° S 00:41:30 49° S visible
30 Nov 10.1 02:46:14 10° W 02:47:16 15° WSW 02:47:16 15° WSW visible
30 Nov 10.8 07:38:20 13° S 07:38:20 13° S 07:40:56 10° S visible
30 Nov 8.5 23:35:30 10° SW 23:42:06 40° SSE 23:44:59 34° ESE visible
01 Dec 9.3 01:46:51 10° WSW 01:50:45 32° WSW 01:50:45 32° WSW visible
01 Dec 11.0 06:41:49 11° S 06:41:49 11° S 06:42:14 10° SSE visible
01 Dec 8.6 22:37:13 10° SSW 22:42:33 29° SSE 22:48:28 16° ESE visible
02 Dec 8.5 00:47:46 10° WSW 00:54:14 50° SSW 00:54:14 50° SSW visible
02 Dec 8.9 21:39:36 10° S 21:43:21 18° SE 21:48:20 10° ESE visible
02 Dec 8.3 23:48:55 10° SW 23:55:29 45° SSE 23:57:43 40° SE visible
03 Dec 9.5 02:00:37 10° WSW 02:03:29 25° WSW 02:03:29 25° WSW visible
03 Dec 8.3 22:50:21 10° SW 22:55:48 35° SSE 23:01:12 20° ESE visible
04 Dec 8.6 01:01:27 10° WSW 01:06:59 45° SW 01:06:59 45° SW visible
04 Dec 8.5 21:52:10 10° SSW 21:56:27 24° SSE 22:02:39 10° E visible
05 Dec 8.2 00:02:30 10° WSW 00:09:00 48° S 00:10:28 45° SSE visible
05 Dec 9.8 02:14:28 10° W 02:16:15 18° WSW 02:16:15 18° WSW visible
05 Dec 8.1 23:03:47 10° SW 23:09:14 40° SSE 23:13:59 23° ESE visible
06 Dec 8.8 01:15:14 10° WSW 01:19:46 37° SW 01:19:46 37° SW visible
06 Dec 8.2 22:05:17 10° SW 22:09:46 30° SSE 22:16:33 10° E visible
07 Dec 8.2 00:16:14 10° WSW 00:22:36 46° S 00:23:18 46° SSE visible
07 Dec 10.0 02:28:29 10° W 02:29:05 12° WSW 02:29:05 12° WSW visible
07 Dec 8.0 23:17:23 10° WSW 23:22:46 42° S 23:26:51 26° ESE visible
